Weather History for Dayton, OH

Change the Weather History Date:

Sunday, March 24, 2013

  Actual Average Record
Temperature  
Mean Temperature 32 °F 43 °F  
Max Temperature 34 °F 53 °F 87 °F (1910)
Min Temperature 29 °F 34 °F 4 °F (1974)
Degree Days  
Heating Degree Days 33 22  
Month to date heating degree days 733 623  
Since 1 July heating degree days 4783 4898  
Cooling Degree Days 0 0  
Month to date cooling degree days 0 0  
Year to date cooling degree days 0 0  
Moisture  
Dew Point 27 °F    
Average Humidity 82    
Maximum Humidity 100    
Minimum Humidity 64    
Precipitation  
Precipitation 0.58 in 0.12 in 2.95 in (1913)
Month to date precipitation 2.96 2.47  
Year to date precipitation 7.35 7.42  
Snow  
Snow 5.80 in 0.10 in 5.80 in (2013)
Month to date snowfall 11.7 3.0  
Since 1 July snowfall 33.4 22.3  
Snow Depth 0.00 in    
Sea Level Pressure  
Sea Level Pressure 29.66 in    
Wind  
Wind Speed 13 mph (NE)    
Max Wind Speed 23 mph    
Max Gust Speed 30 mph    
Visibility 5 miles    
Events Fog , Snow    
T = Trace of Precipitation, MM = Missing Value Source: NWS Daily Summary

Daily Weather History Graph

Daily Weather History Graph

Search for Another Location

Airport:

Trip Planner

Search our weather history database for the weather conditions in past years. The results will help you decide how hot, cold, wet, or windy it might be!

Date:

Astronomy

Mar. 24, 2013 Rise Set
Actual Time 7:33 AM EDT 7:53 PM EDT
Civil Twilight 7:06 AM EDT 8:20 PM EDT
Nautical Twilight 6:34 AM EDT 8:52 PM EDT
Astronomical Twilight 6:02 AM EDT 9:24 PM EDT
Moon 5:20 PM EDT (3/24) 5:43 AM EDT (3/24)
Length of Visible Light 13h 13m
Length of Day
12h 19m
Waxing Gibbous, 91% of the Moon is Illuminated
Mar 24
Waxing Gibbous
Mar 27
Full
Apr 3
Last Quarter
Apr 10
New
Apr 18
First Quarter

Hourly Weather History & Observations

Time (EDT) Temp. Windchill Dew Point Humidity Pressure Visibility Wind Dir Wind Speed Gust Speed Precip Events Conditions
12:56 AM 32.0 °F 22.5 °F 26.1 °F 79% 29.94 in 9.0 mi NE 12.7 mph - N/A   Mostly Cloudy
1:56 AM 30.9 °F 22.8 °F 25.0 °F 79% 29.93 in 9.0 mi ENE 9.2 mph - N/A   Mostly Cloudy
2:56 AM 32.0 °F 24.2 °F 25.0 °F 75% 29.94 in 9.0 mi ENE 9.2 mph - N/A   Overcast
3:56 AM 30.9 °F 22.8 °F 25.0 °F 79% 29.93 in 9.0 mi ENE 9.2 mph - N/A   Overcast
4:56 AM 30.9 °F 22.2 °F 24.1 °F 76% 29.91 in 9.0 mi ENE 10.4 mph - N/A   Overcast
5:56 AM 30.9 °F 20.7 °F 24.1 °F 76% 29.86 in 9.0 mi ENE 13.8 mph - N/A   Overcast
6:56 AM 32.0 °F 22.1 °F 24.1 °F 73% 29.84 in 9.0 mi ENE 13.8 mph - N/A   Overcast
7:56 AM 32.0 °F 22.5 °F 24.1 °F 73% 29.83 in 10.0 mi ENE 12.7 mph - N/A   Overcast
8:56 AM 32.0 °F 22.1 °F 23.0 °F 69% 29.79 in 10.0 mi NE 13.8 mph - N/A   Overcast
9:56 AM 33.1 °F 24.4 °F 23.0 °F 66% 29.80 in 10.0 mi NE 11.5 mph - N/A   Overcast
10:56 AM 33.1 °F 23.0 °F 23.0 °F 66% 29.77 in 10.0 mi ENE 15.0 mph - N/A   Overcast
11:56 AM 33.1 °F 23.9 °F 23.0 °F 66% 29.74 in 9.0 mi NE 12.7 mph - 0.00 in Snow Light Snow
12:11 PM 33.8 °F 24.3 °F 24.8 °F 70% 29.71 in 1.8 mi NE 13.8 mph - 0.00 in Snow Light Snow
12:21 PM 32.0 °F 21.2 °F 24.8 °F 75% 29.70 in 0.5 mi NE 16.1 mph - 0.00 in Snow Snow
12:34 PM 30.2 °F 18.9 °F 26.6 °F 86% 29.69 in 0.5 mi NE 16.1 mph - 0.02 in Fog , Snow Snow
12:56 PM 30.0 °F 20.5 °F 28.9 °F 96% 29.71 in 0.2 mi ENE 11.5 mph - 0.07 in Fog , Snow Heavy Snow
1:06 PM 30.2 °F 20.8 °F 30.2 °F 100% 29.68 in 0.2 mi NE 11.5 mph - 0.01 in Fog , Snow Snow
1:30 PM 30.2 °F 19.8 °F 28.4 °F 93% 29.66 in 1.0 mi ENE 13.8 mph - 0.02 in Snow Light Snow
1:47 PM 30.2 °F 18.9 °F 28.4 °F 93% 29.65 in 2.0 mi ENE 16.1 mph 23.0 mph 0.02 in Snow Light Snow
1:56 PM 30.9 °F 20.2 °F 28.9 °F 92% 29.68 in 2.0 mi ENE 15.0 mph 23.0 mph 0.03 in Snow Light Snow
2:06 PM 30.2 °F 18.9 °F 28.4 °F 93% 29.64 in 1.5 mi ENE 16.1 mph - 0.00 in Snow Light Snow
2:44 PM 30.2 °F 18.1 °F 28.4 °F 93% 29.61 in 1.2 mi ENE 18.4 mph - 0.00 in Snow Light Snow
2:52 PM 30.2 °F 18.5 °F 28.4 °F 93% 29.61 in 1.0 mi NE 17.3 mph - 0.00 in Snow Light Snow
2:56 PM 30.9 °F 19.1 °F 28.9 °F 92% 29.63 in 1.0 mi NE 18.4 mph - 0.01 in Snow Light Snow
3:56 PM 30.9 °F 18.1 °F 28.9 °F 92% 29.55 in 1.8 mi NE 21.9 mph 28.8 mph 0.01 in Snow Light Snow
4:04 PM 32.0 °F 20.1 °F 28.4 °F 87% 29.51 in 2.5 mi NE 19.6 mph 29.9 mph 0.00 in Snow Light Snow
4:25 PM 32.0 °F 21.6 °F 28.4 °F 87% 29.54 in 5.0 mi NE 15.0 mph - 0.00 in   Overcast
4:37 PM 32.0 °F 23.6 °F 28.4 °F 87% 29.55 in 8.0 mi ENE 10.4 mph - 0.00 in   Overcast
4:56 PM 32.0 °F 21.6 °F 28.9 °F 88% 29.56 in 8.0 mi ENE 15.0 mph - 0.00 in   Overcast
5:25 PM 32.0 °F 21.6 °F 28.4 °F 87% 29.52 in 6.0 mi ENE 15.0 mph - N/A   Overcast
5:56 PM 33.1 °F 22.6 °F 28.9 °F 85% 29.52 in 10.0 mi ENE 16.1 mph - N/A   Overcast
6:56 PM 33.1 °F 21.5 °F 28.9 °F 85% 29.49 in 10.0 mi ENE 19.6 mph - 0.00 in   Overcast
7:56 PM 33.1 °F 23.0 °F 28.0 °F 82% 29.48 in 5.0 mi ENE 15.0 mph - 0.01 in Snow Light Snow
8:36 PM 32.0 °F 22.1 °F 28.4 °F 87% 29.45 in 0.8 mi ENE 13.8 mph - 0.02 in Snow Light Snow
8:46 PM 32.0 °F 24.2 °F 28.4 °F 87% 29.46 in 0.2 mi East 9.2 mph 20.7 mph 0.05 in Fog , Snow Heavy Snow
8:56 PM 30.9 °F 22.8 °F 30.0 °F 96% 29.49 in 0.5 mi East 9.2 mph - 0.08 in Fog , Snow Snow
9:56 PM 30.9 °F 21.2 °F 30.0 °F 96% 29.48 in 0.5 mi NE 12.7 mph - 0.10 in Fog , Snow Snow
10:17 PM 30.2 °F 20.2 °F 30.2 °F 100% 29.45 in 0.8 mi NE 12.7 mph - 0.03 in Snow Light Snow
10:56 PM 30.9 °F 21.7 °F 30.0 °F 96% 29.48 in 0.2 mi NE 11.5 mph - 0.10 in Fog , Snow Snow
11:51 PM 30.2 °F 20.2 °F 28.4 °F 93% 29.45 in 0.2 mi NNE 12.7 mph - 0.15 in Snow Light Snow
11:56 PM 28.9 °F 18.2 °F 28.9 °F 100% 29.47 in 0.8 mi NNE 13.8 mph - 0.15 in Snow Light Snow